Deer Park, WA
on Thursday, December 27, 2012

Thursday
Previous Day Next Day
Daily Summary
 ActualAverageRecord
Temperature
Mean Temperature °F 25°F  
Max Temperature 31°F 31°F 53°F (2008)
Min Temperature 23°F 18°F 5°F (2001)
Degree Days
Heating Degree Days 38 40  
Month to date heating degree days 879 1063  
Since 1 July heating degree days 2616 3066  
Cooling Degree Days 0 0  
Month to date cooling degree days 0 0  
Year to date cooling degree days 232 187  
Moisture
Dew Point 27°F   
Average Humidity 96    
Maximum Humidity 100    
Minimum Humidity 92    
Precipitation
Precipitation 0.02 in 0.10 in 0.55 in (2002)
Month to date precipitation 2.46 2.51  
Year to date precipitation 26.57 21.90  
Wind
Wind Speed 2 mph   
Max Wind Speed 9 mph   
Max Gust Speed 10 mph   
Visibility 7 miles   
Events Fog , Snow   

Key: T is trace of precipitation, MM is missing value
Source: NWS Daily Summary
Time(PST)TemperatureDew PointHumidity Pressure Visibility Wind DirectionWind SpeedGust SpeedPrecipitationEvents Conditions
12:31 AM 26.6°F 24.8°F 93% 29.91 in 2.5 miles Calm Calm - 0.01 in Snow Light Snow
12:53 AM 27.0°F 26.1°F 96% 29.98 in 1.8 miles Calm Calm - 0.01 in Snow Light Snow
1:07 AM 26.6°F 26.6°F 100% 29.92 in 2.5 miles Calm Calm - 0.00 in Snow Light Snow
1:16 AM 26.6°F 24.8°F 93% 29.92 in 3.0 miles Calm Calm - 0.00 in Snow Light Snow
1:53 AM 27.0°F 26.1°F 96% 30.00 in 6.0 miles Calm Calm - 0.01 in   Overcast
2:53 AM 27.0°F 26.1°F 96% 30.00 in 8.0 miles Calm Calm - 0.00 in   Overcast
3:30 AM 26.6°F 26.6°F 100% 29.94 in 10.0 miles Calm Calm - N/A   Overcast
3:43 AM 26.6°F 26.6°F 100% 29.94 in 10.0 miles Calm Calm - N/A   Overcast
3:53 AM 27.0°F 27.0°F 100% 30.01 in 10.0 miles Calm Calm - N/A   Overcast
4:00 AM 28.4°F 26.6°F 93% 29.94 in 10.0 miles Calm Calm - N/A   Overcast
4:53 AM 27.0°F 26.1°F 96% 30.02 in 10.0 miles Calm Calm - N/A   Overcast
5:17 AM 28.4°F 26.6°F 93% 29.95 in 10.0 miles Calm Calm - N/A   Overcast
5:33 AM 28.4°F 26.6°F 93% 29.96 in 10.0 miles Calm Calm - N/A   Overcast
5:53 AM 28.0°F 27.0°F 96% 30.04 in 10.0 miles Calm Calm - N/A   Overcast
6:39 AM 28.4°F 26.6°F 93% 29.97 in 10.0 miles Calm Calm - N/A   Overcast
6:53 AM 28.0°F 27.0°F 96% 30.05 in 10.0 miles Calm Calm - N/A   Overcast
7:25 AM 28.4°F 28.4°F 100% 29.98 in 1.8 miles Calm Calm - N/A   Overcast
7:39 AM 28.4°F 28.4°F 100% 29.98 in 0.8 miles Calm Calm - N/A   Mist
7:53 AM 28.9°F 28.0°F 96% 30.06 in 0.2 miles Calm Calm - N/A Fog Light Freezing Fog
8:53 AM 28.9°F 28.0°F 96% 30.08 in 0.5 miles Calm Calm - 0.00 in Fog , Snow Light Snow
9:06 AM 28.4°F 28.4°F 100% 30.01 in 1.2 miles Calm Calm - 0.00 in   Overcast
9:27 AM 28.4°F 28.4°F 100% 30.01 in 2.0 miles Calm Calm - 0.00 in   Overcast
9:53 AM 28.9°F 28.9°F 100% 30.09 in 2.0 miles Calm Calm - 0.00 in   Overcast
10:11 AM 28.4°F 28.4°F 100% 30.02 in 3.0 miles Calm Calm - N/A   Overcast
10:53 AM 30.0°F 28.9°F 96% 30.09 in 5.0 miles Calm Calm - N/A   Overcast
11:04 AM 30.2°F 28.4°F 93% 30.02 in 5.0 miles Calm Calm - N/A   Overcast
11:12 AM 30.2°F 28.4°F 93% 30.02 in 5.0 miles South 3.5 mph - N/A   Overcast
11:53 AM 30.0°F 28.9°F 96% 30.09 in 8.0 miles Calm Calm - N/A   Overcast
12:53 PM 30.0°F 28.9°F 96% 30.09 in 10.0 miles South 3.5 mph - N/A   Overcast
1:27 PM 30.2°F 28.4°F 93% 30.03 in 10.0 miles SSE 3.5 mph - N/A   Overcast
1:53 PM 30.9°F 28.0°F 89% 30.10 in 10.0 miles North - - N/A   Overcast
2:06 PM 30.2°F 28.4°F 93% 30.03 in 10.0 miles North - - N/A   Overcast
2:42 PM 30.2°F 28.4°F 93% 30.04 in 10.0 miles SSE 3.5 mph - N/A   Overcast
2:53 PM 30.9°F 28.9°F 92% 30.11 in 10.0 miles SSE 4.6 mph - N/A   Overcast
3:03 PM 30.2°F 28.4°F 93% 30.04 in 10.0 miles SSE 5.8 mph - N/A   Overcast
3:29 PM 30.2°F 28.4°F 93% 30.04 in 10.0 miles SSE 8.1 mph - N/A   Overcast
4:28 PM 26.6°F 24.8°F 93% 30.06 in 1.5 miles Calm Calm - N/A   Mostly Cloudy
4:37 PM 26.6°F 26.6°F 100% 30.06 in 0.5 miles Calm Calm - N/A Fog Light Freezing Fog
4:53 PM 23.0°F 21.9°F 96% 30.14 in 0.2 miles Calm Calm - N/A Fog Light Freezing Fog
5:23 PM 26.6°F 24.8°F 93% 30.07 in 1.8 miles SSW 3.5 mph - N/A   Overcast
5:25 PM 26.6°F 26.6°F 100% 30.07 in 3.0 miles SSW 3.5 mph - N/A   Overcast
5:53 PM 27.0°F 26.1°F 96% 30.14 in 10.0 miles South 3.5 mph - N/A   Overcast
6:53 PM 28.0°F 27.0°F 96% 30.15 in 10.0 miles South 4.6 mph - N/A   Overcast
7:53 PM 27.0°F 26.1°F 96% 30.15 in 10.0 miles South 3.5 mph - N/A   Overcast
8:16 PM 28.4°F 26.6°F 93% 30.08 in 10.0 miles SSW 5.8 mph - N/A   Overcast
8:53 PM 28.0°F 26.1°F 92% 30.16 in 10.0 miles Calm Calm - N/A   Overcast
9:01 PM 28.4°F 26.6°F 93% 30.09 in 10.0 miles WSW 4.6 mph - N/A   Overcast
9:09 PM 28.4°F 26.6°F 93% 30.09 in 10.0 miles WSW 4.6 mph - N/A   Overcast
9:18 PM 28.4°F 26.6°F 93% 30.09 in 10.0 miles WSW 3.5 mph - N/A   Overcast
9:53 PM 28.0°F 27.0°F 96% 30.17 in 10.0 miles SSW 3.5 mph - N/A   Overcast
10:22 PM 28.4°F 26.6°F 93% 30.10 in 10.0 miles SSW 3.5 mph - N/A   Overcast
10:53 PM 28.0°F 27.0°F 96% 30.18 in 10.0 miles Calm Calm - N/A   Overcast
11:53 PM 28.0°F 26.1°F 92% 30.18 in 10.0 miles SSE 4.6 mph - N/A   Overcast
Moon Phase
Dec. 27 Dec. 28 Jan. 04 Jan. 11 Jan. 18
Sunrise:07:38 AM (PST) Moon Rise:03:53 PM (PST)12/27
Sunset:04:03 PM (PST) Moon Set:06:50 AM (PST)12/27

Copyright © 2014 The Weather Underground, Inc.